TimeEDT,TemperatureF,Dew PointF,Humidity,Sea Level PressureIn,VisibilityMPH,Wind Direction,Wind SpeedMPH,Gust SpeedMPH,PrecipitationIn,Events,Conditions,WindDirDegrees,DateUTC
4:55 AM,59.0,50.0,72,30.02,10.0,West,11.5,-,N/A,,Overcast,270,2012-10-05 08:55:00
5:55 AM,59.0,51.8,77,30.04,10.0,West,9.2,-,N/A,,Overcast,260,2012-10-05 09:55:00
6:55 AM,57.2,50.0,77,30.04,10.0,West,10.4,-,N/A,,Mostly Cloudy,270,2012-10-05 10:55:00
7:55 AM,55.4,48.2,77,30.06,10.0,WSW,10.4,-,N/A,,Mostly Cloudy,250,2012-10-05 11:55:00
8:55 AM,55.4,48.2,77,30.06,10.0,West,5.8,-,N/A,,Mostly Cloudy,270,2012-10-05 12:55:00
9:55 AM,55.4,48.2,77,30.07,10.0,West,10.4,-,N/A,,Overcast,270,2012-10-05 13:55:00
10:55 AM,57.2,48.2,72,30.06,10.0,West,9.2,-,N/A,,Mostly Cloudy,260,2012-10-05 14:55:00
11:55 AM,57.2,44.6,63,30.05,10.0,West,11.5,-,N/A,,Mostly Cloudy,280,2012-10-05 15:55:00
12:55 PM,57.2,44.6,63,30.04,10.0,WSW,11.5,-,N/A,,Scattered Clouds,250,2012-10-05 16:55:00
1:55 PM,57.2,42.8,59,30.04,10.0,West,8.1,-,N/A,,Overcast,260,2012-10-05 17:55:00
2:55 PM,57.2,42.8,59,30.02,10.0,WSW,11.5,-,N/A,,Overcast,250,2012-10-05 18:55:00
3:55 PM,57.2,42.8,59,30.00,10.0,West,12.7,-,N/A,,Overcast,270,2012-10-05 19:55:00
4:55 PM,57.2,41.0,55,29.98,10.0,West,9.2,-,N/A,,Overcast,270,2012-10-05 20:55:00
5:08 PM,57.2,42.8,59,29.96,10.0,WSW,10.4,-,N/A,Rain,Light Rain,250,2012-10-05 21:08:00
5:55 PM,53.6,46.4,77,29.98,7.0,SW,9.2,-,N/A,Rain,Light Rain,220,2012-10-05 21:55:00
6:55 PM,51.8,48.2,88,30.00,7.0,West,9.2,-,N/A,Rain,Light Rain,260,2012-10-05 22:55:00
7:55 PM,50.0,46.4,87,30.01,6.0,SW,11.5,-,N/A,Rain,Light Rain,230,2012-10-05 23:55:00
8:55 PM,50.0,44.6,82,30.00,7.0,West,11.5,-,N/A,Rain,Light Rain,260,2012-10-06 00:55:00
9:55 PM,46.4,42.8,87,29.99,7.0,West,8.1,-,N/A,Rain,Light Rain,260,2012-10-06 01:55:00
10:55 PM,46.4,42.8,87,29.99,7.0,SW,6.9,-,N/A,Rain,Light Rain,230,2012-10-06 02:55:00